Regional Weather Roundup
Issued by NWS Upton, NY

Current Version | Previous Version | Text Only | Print | Product List | Glossary On
Versions: 1 2 3 4 5 6 7 8 9 10 11 12 13 14 15 16 17 18 19 20 21 22 23 24 25 26 27
000
ASUS41 KOKX 212008
RWROKX

REGIONAL WEATHER ROUNDUP
NATIONAL WEATHER SERVICE NEW YORK NY
400 PM EDT SAT OCT 21 2017

NOTE: "FAIR" INDICATES FEW OR NO CLOUDS BELOW 12,000 FEET WITH NO
SIGNIFICANT WEATHER AND/OR OBSTRUCTIONS TO VISIBILITY.

NYZ071-072-176-178-NJZ106-104-212100-
NEW YORK CITY METRO AREA

CITY           SKY/WX    TMP DP  RH WIND       PRES   REMARKS
Central Park   CLOUDY    76  38  25 VRB5      30.32S
Bronx Bot Gard   N/A     79  36  21 SW5       30.30R
LaGuardia APRT CLOUDY    75  47  36 SW9       30.29S
Kennedy INTL   PTSUNNY   69  49  48 S14       30.32R
Breezy Point     N/A     64 N/A N/A S9          N/A
Newark/Liberty PTSUNNY   79  32  18 SW7       30.29S
Teterboro      MOSUNNY   80  35  19 SW7       30.28S
$$

NYZ177-179-078>081-212100-
LONG ISLAND NEW YORK

CITY           SKY/WX    TMP DP  RH WIND       PRES   REMARKS
Jones Beach      N/A     66 N/A N/A S8          N/A
Matinecock PT    N/A     75 N/A N/A SW5         N/A
Farmingdale    SUNNY     69  49  48 S10       30.31R
MacArthur/ISP  PTSUNNY   70  42  36 SW9       30.31S
Shirley        SUNNY     71  49  45 S10       30.31S
Mt Sinai Harb    N/A    N/A N/A N/A S12         N/A
Westhampton    SUNNY     68  48  48 SW9       30.32S
East Hampton   FAIR      65  49  56 SW12      30.30S
Montauk          N/A     67  51  56 SW8       30.32R
$$

NYZ052-065-067-212100-
HUDSON VALLEY

CITY           SKY/WX    TMP DP  RH WIND       PRES   REMARKS
White Plains   CLOUDY    77  36  22 VRB3      30.29S
Larchmont Harb   N/A     73 N/A N/A S8          N/A
Croton On Huds   N/A     75 N/A N/A SE3         N/A
Newburgh       PTSUNNY   75  41  29 W6        30.30S
Montgomery     CLOUDY    75  43  31 W5        30.28S
Poughkeepsie   CLOUDY    77  40  26 SW7       30.27S
Albany         CLOUDY    72  44  36 SE3       30.28R
$$

NJZ001-105-106-008-010-013-015-019>022-104-212100-
NEW JERSEY

CITY           SKY/WX    TMP DP  RH WIND       PRES   REMARKS
Newark/Liberty PTSUNNY   79  32  18 SW7       30.29S
Teterboro      MOSUNNY   80  35  19 SW7       30.28S
Caldwell       MOSUNNY   77  39  25 CALM      30.30S
Somerville     CLOUDY    78  40  25 CALM      30.28S
Linden         NOT AVBL
Perth Amboy      N/A     75 N/A N/A W1          N/A
Sussex         CLOUDY    75  40  28 SW5       30.30S
Andover          N/A     75  40  28 SW5       30.31S
Trenton        SUNNY     76  43  30 SW8       30.31R
Millville      SUNNY     77  44  30 CALM      30.32S
Atlantic City  SUNNY     75  42  30 S5        30.31F
Wrightstown    SUNNY     76  45  33 W6        30.29R
Toms River       N/A     74  45  35 SE6       30.32S
Belmar         MOSUNNY   72  36  26 S7        30.33
$$

PAZ047>061-062-071-212100-
EASTERN PENNSYLVANIA

CITY           SKY/WX    TMP DP  RH WIND       PRES   REMARKS
Philadelphia   PTSUNNY   78  40  25 CALM      30.31S
Allentown      CLOUDY    77  46  33 CALM      30.31S
Scranton       CLOUDY    74  37  26 SW5       30.32S
$$

CTZ002-004>006-009-010-012-RIZ004-006-007-MAZ004-011-015-212100-
SOUTHERN NEW ENGLAND
 IN CT

CITY           SKY/WX    TMP DP  RH WIND       PRES   REMARKS
Bradley INTL   CLOUDY    79  34  19 W7        30.26S
Hartford       SUNNY     80  34  19 NW3       30.26S
Danbury        CLOUDY    78  36  21 W6        30.30S
Wtrbury/Oxford CLOUDY    76  39  26 VRB3      30.31R
Norwalk Harbor NOT AVBL
Bridgeport     CLOUDY    73  51  46 SW6       30.28F
Meriden        SUNNY     78  36  21 SW5       30.27S
New Haven      CLOUDY    72  45  37 SW6       30.29S
Chester        FAIR      73  39  29 VRB6      30.29S
Groton         SUNNY     68  52  56 SW8       30.29R
Wilimantic     SUNNY     79  36  21 NW5       30.27F

 IN RI

CITY           SKY/WX    TMP DP  RH WIND       PRES   REMARKS
Providence     PTSUNNY   72  46  39 S15       30.27S
Block Island   MOSUNNY   66  52  60 SW14      30.31S
Westerly       SUNNY     70  47  43 SW10      30.30S
 IN MA

CITY           SKY/WX    TMP DP  RH WIND       PRES   REMARKS
Boston         MOSUNNY   77  36  22 W12       30.24R
Worcester      SUNNY     71  36  27 W9        30.29S
Westfield      CLOUDY    78  35  21 W9        30.26S
Provincetown   SUNNY     66  51  58 SW12      30.27S
Nantucket      SUNNY     64  51  62 SW9       30.29F
$$

ANZ330-335-338-340-345-350-353-355-212100-
COASTAL MARINE OBSERVATIONS


STATION/POSITION TIME  SKY/WX   TEMP    WIND        PRES    VSBY  WAVE
                                AIR SEA DIR/SP/G                  HT/PER
                 (UTC)          (F)     (DEG/KT/KT) (MB)    (MI)  (FT/S)
NY HARB ENTRANCE 1850            66 66  180/ 10/ 10 1025.9          1/ 9
20 S FIRE ISLAND 1850            65 66  210/  6/  6 1027.0          2/ 8
GREAT SOUTH BAY  1915            65 63  220/  6/  8   N/A
15 E BARNEGAT LI NOT AVBL
HUDSON CANYON    1850            66 66  190/  2/  4 1026.3          2/ 8
KINGS POINT      1942            75 66  220/  6/  9 1026.5
EXECUTION ROCKS  1930            75     180/  6/  6   N/A
WESTERN LI SOUND 1849            72     210/  6/  8   N/A           1
CENTRAL LI SOUND 1900            67     220/  4/  6   N/A           0
EASTERN LI SOUND NOT AVBL
ROBBINS REEF     1948            68     170/ 15/ 15 1026.6
$$


>>>>>>>>>>>>>>>>>>>>>>>>>>>> KEY <<<<<<<<<<<<<<<<<<<<<<<<<<<
>                                                          <
>     SKY/WX - Sky Condition/Present Weather               <
>     TMP    - Temperature in Fahrenheit                   <
>     DP     - Dew Point in Fahrenheit                     <
>     RH     - Relative Humidity in Percent                <
>     WIND   - Direction (from) and Speed in MPH           <
>     PRES   - Mean Sea Level Pressure (inches of Hg)      <
>     WCI    - Wind Chill Index                            <
>     VSB    - VISIBILITY IN MILES                         <
>     HX     - HEAT INDEX                                  <
>     TC     - TEMPERATURE IN CELSIUS                      <
>     VRB    - VARIABLE WIND DIRECTION                     <
>                                                          <
>>>>>>>>>>>>>>>>>>>>>>>>>>>> KEY <<<<<<<<<<<<<<<<<<<<<<<<<<<




USA.gov is the U.S. government's official web portal to all federal, state and local government web resources and services.